Time,TemperatureF,DewpointF,PressureIn,WindDirection,WindDirectionDegrees,WindSpeedMPH,WindSpeedGustMPH,Humidity,HourlyPrecipIn,Conditions,Clouds,dailyrainin,SoftwareType,DateUTC
2013-04-11 00:00:00,33.9,19.0,29.91,NW,307,10.0,10.0,54,0.00,,,0.00,Wunderground v.1.15,2013-04-11 04:00:00,
2013-04-11 00:10:00,33.8,19.3,29.92,NW,306,13.0,13.0,55,0.00,,,0.00,Wunderground v.1.15,2013-04-11 04:10:00,
2013-04-11 00:20:00,33.5,18.6,29.92,NW,325,12.0,13.0,54,0.00,,,0.00,Wunderground v.1.15,2013-04-11 04:20:00,
2013-04-11 00:30:00,33.1,19.5,29.92,WNW,291,11.0,11.0,57,0.00,,,0.00,Wunderground v.1.15,2013-04-11 04:30:00,
2013-04-11 00:40:00,32.9,19.3,29.93,WNW,302,11.0,11.0,57,0.00,,,0.00,Wunderground v.1.15,2013-04-11 04:40:00,
2013-04-11 00:50:00,32.6,19.4,29.93,NNW,329,12.0,14.0,58,0.00,,,0.00,Wunderground v.1.15,2013-04-11 04:50:00,
2013-04-11 01:00:00,32.4,19.7,29.94,NNW,327,11.0,14.0,59,0.00,,,0.00,Wunderground v.1.15,2013-04-11 05:00:00,
2013-04-11 01:10:00,32.1,19.8,29.94,WNW,294,8.0,9.0,60,0.00,,,0.00,Wunderground v.1.15,2013-04-11 05:10:00,
2013-04-11 01:20:00,31.9,20.7,29.94,NW,317,10.0,10.0,63,0.00,,,0.00,Wunderground v.1.15,2013-04-11 05:20:00,
2013-04-11 01:30:00,31.6,20.4,29.93,NW,307,10.0,15.0,63,0.00,,,0.00,Wunderground v.1.15,2013-04-11 05:30:00,
2013-04-11 01:40:00,31.2,19.7,29.94,NW,320,12.0,12.0,62,0.00,,,0.00,Wunderground v.1.15,2013-04-11 05:40:00,
2013-04-11 01:50:00,30.7,19.6,29.94,West,277,14.0,16.0,63,0.00,,,0.00,Wunderground v.1.15,2013-04-11 05:50:00,
2013-04-11 02:00:00,30.3,18.5,29.93,NW,323,11.0,12.0,61,0.00,,,0.00,Wunderground v.1.15,2013-04-11 06:00:00,
2013-04-11 02:10:00,30.0,18.9,29.94,WNW,295,10.0,10.0,63,0.00,,,0.00,Wunderground v.1.15,2013-04-11 06:10:00,
2013-04-11 02:20:00,29.6,17.0,29.93,WNW,296,8.0,10.0,59,0.00,,,0.00,Wunderground v.1.15,2013-04-11 06:20:00,
2013-04-11 02:31:00,28.9,15.6,29.93,NNW,335,12.0,12.0,57,0.00,,,0.00,Wunderground v.1.15,2013-04-11 06:31:00,
2013-04-11 02:40:00,28.6,15.7,29.92,NW,309,10.0,10.0,58,0.00,,,0.00,Wunderground v.1.15,2013-04-11 06:40:00,
2013-04-11 02:50:00,28.3,15.4,29.93,NNW,327,7.0,7.0,58,0.00,,,0.00,Wunderground v.1.15,2013-04-11 06:50:00,
2013-04-11 03:00:00,28.3,14.6,29.94,NNW,336,10.0,11.0,56,0.00,,,0.00,Wunderground v.1.15,2013-04-11 07:00:00,
2013-04-11 03:10:00,28.1,14.8,29.95,NNW,331,8.0,13.0,57,0.00,,,0.00,Wunderground v.1.15,2013-04-11 07:10:00,
2013-04-11 03:20:00,27.9,14.2,29.95,WNW,297,9.0,9.0,56,0.00,,,0.00,Wunderground v.1.15,2013-04-11 07:20:00,
2013-04-11 03:30:00,27.7,13.2,29.96,North,355,13.0,15.0,54,0.00,,,0.00,Wunderground v.1.15,2013-04-11 07:30:00,
2013-04-11 03:40:00,27.4,11.6,29.97,NNW,329,13.0,19.0,51,0.00,,,0.00,Wunderground v.1.15,2013-04-11 07:40:00,
2013-04-11 03:50:00,27.1,12.2,29.97,North,350,12.0,12.0,53,0.00,,,0.00,Wunderground v.1.15,2013-04-11 07:50:00,
2013-04-11 04:00:00,26.9,12.9,29.96,NNW,342,7.0,7.0,55,0.00,,,0.00,Wunderground v.1.15,2013-04-11 08:00:00,
2013-04-11 04:10:00,26.6,13.0,29.96,NW,326,3.0,3.0,56,0.00,,,0.00,Wunderground v.1.15,2013-04-11 08:10:00,
2013-04-11 04:20:00,26.3,11.5,29.96,NNW,334,7.0,12.0,53,0.00,,,0.00,Wunderground v.1.15,2013-04-11 08:20:00,
2013-04-11 04:30:00,26.1,11.7,29.97,NW,318,6.0,7.0,54,0.00,,,0.00,Wunderground v.1.15,2013-04-11 08:30:00,
2013-04-11 04:40:00,25.9,11.1,29.96,NNW,345,8.0,8.0,53,0.00,,,0.00,Wunderground v.1.15,2013-04-11 08:40:00,
2013-04-11 04:50:00,25.7,10.9,29.97,North,355,7.0,13.0,53,0.00,,,0.00,Wunderground v.1.15,2013-04-11 08:50:00,
2013-04-11 05:00:00,25.4,10.2,29.97,NW,313,6.0,6.0,52,0.00,,,0.00,Wunderground v.1.15,2013-04-11 09:00:00,
2013-04-11 05:10:00,25.2,10.9,29.96,NW,321,6.0,6.0,54,0.00,,,0.00,Wunderground v.1.15,2013-04-11 09:10:00,
2013-04-11 05:20:00,24.9,10.6,29.97,NW,323,5.0,5.0,54,0.00,,,0.00,Wunderground v.1.15,2013-04-11 09:20:00,
2013-04-11 05:30:00,24.7,10.4,29.97,NW,312,7.0,7.0,54,0.00,,,0.00,Wunderground v.1.15,2013-04-11 09:30:00,
2013-04-11 05:40:00,24.4,10.5,29.98,NW,309,8.0,10.0,55,0.00,,,0.00,Wunderground v.1.15,2013-04-11 09:40:00,
2013-04-11 05:50:00,24.2,10.3,29.98,NW,314,7.0,7.0,55,0.00,,,0.00,Wunderground v.1.15,2013-04-11 09:50:00,
2013-04-11 06:00:00,24.0,10.2,29.98,NW,316,7.0,9.0,55,0.00,,,0.00,Wunderground v.1.15,2013-04-11 10:00:00,
2013-04-11 06:10:00,23.9,9.6,29.97,NW,315,10.0,16.0,54,0.00,,,0.00,Wunderground v.1.15,2013-04-11 10:10:00,
2013-04-11 06:20:00,23.7,9.9,29.98,WNW,282,12.0,12.0,55,0.00,,,0.00,Wunderground v.1.15,2013-04-11 10:20:00,
2013-04-11 06:30:00,23.6,9.8,29.98,NNW,332,12.0,12.0,55,0.00,,,0.00,Wunderground v.1.15,2013-04-11 10:30:00,
2013-04-11 06:40:00,23.6,10.6,29.99,NNW,331,10.0,11.0,57,0.00,,,0.00,Wunderground v.1.15,2013-04-11 10:40:00,
2013-04-11 06:50:00,23.8,10.8,29.99,West,277,13.0,13.0,57,0.00,,,0.00,Wunderground v.1.15,2013-04-11 10:50:00,
2013-04-11 07:00:00,23.9,10.9,29.99,NNW,328,13.0,15.0,57,0.00,,,0.00,Wunderground v.1.15,2013-04-11 11:00:00,
2013-04-11 07:10:00,24.1,11.0,30.00,WNW,302,14.0,14.0,57,0.00,,,0.00,Wunderground v.1.15,2013-04-11 11:10:00,
2013-04-11 07:20:00,24.2,11.1,30.00,WNW,290,14.0,14.0,57,0.00,,,0.00,Wunderground v.1.15,2013-04-11 11:20:00,
2013-04-11 07:30:00,24.3,12.0,30.00,NW,318,14.0,14.0,59,0.00,,,0.00,Wunderground v.1.15,2013-04-11 11:30:00,
2013-04-11 07:40:00,24.5,11.4,30.00,WNW,292,14.0,14.0,57,0.00,,,0.00,Wunderground v.1.15,2013-04-11 11:40:00,
2013-04-11 07:50:00,24.8,11.3,30.00,WNW,302,12.0,12.0,56,0.00,,,0.00,Wunderground v.1.15,2013-04-11 11:50:00,
2013-04-11 08:00:00,25.2,11.7,30.00,NNW,340,12.0,18.0,56,0.00,,,0.00,Wunderground v.1.15,2013-04-11 12:00:00,
2013-04-11 08:10:00,25.2,11.7,30.01,NW,325,13.0,13.0,56,0.00,,,0.00,Wunderground v.1.15,2013-04-11 12:10:00,
2013-04-11 08:20:00,25.5,12.0,30.00,NW,309,12.0,17.0,56,0.00,,,0.00,Wunderground v.1.15,2013-04-11 12:20:00,
2013-04-11 08:30:00,25.8,12.2,30.00,NNW,342,13.0,13.0,56,0.00,,,0.00,Wunderground v.1.15,2013-04-11 12:30:00,
2013-04-11 08:40:00,26.1,12.5,29.99,NW,314,12.0,12.0,56,0.00,,,0.00,Wunderground v.1.15,2013-04-11 12:40:00,
2013-04-11 08:50:00,26.4,12.0,30.00,WNW,302,12.0,13.0,54,0.00,,,0.00,Wunderground v.1.15,2013-04-11 12:50:00,
2013-04-11 09:00:00,26.8,12.8,30.01,WNW,286,12.0,12.0,55,0.00,,,0.00,Wunderground v.1.15,2013-04-11 13:00:00,
2013-04-11 09:10:00,26.8,11.9,30.01,NW,306,13.0,16.0,53,0.00,,,0.00,Wunderground v.1.15,2013-04-11 13:10:00,
2013-04-11 09:20:00,27.1,12.6,30.01,NNW,337,12.0,16.0,54,0.00,,,0.00,Wunderground v.1.15,2013-04-11 13:20:00,
2013-04-11 09:30:00,27.5,13.8,30.02,NW,306,12.0,12.0,56,0.00,,,0.00,Wunderground v.1.15,2013-04-11 13:30:00,
2013-04-11 09:40:00,27.6,13.5,30.03,NW,310,11.0,16.0,55,0.00,,,0.00,Wunderground v.1.15,2013-04-11 13:40:00,
2013-04-11 09:50:00,27.9,13.0,30.03,NNW,342,13.0,13.0,53,0.00,,,0.00,Wunderground v.1.15,2013-04-11 13:50:00,
2013-04-11 10:01:00,27.5,14.2,30.03,North,360,16.0,16.0,57,0.00,,,0.00,Wunderground v.1.15,2013-04-11 14:01:00,
2013-04-11 10:10:00,27.4,12.9,30.03,NW,321,15.0,16.0,54,0.00,,,0.00,Wunderground v.1.15,2013-04-11 14:10:00,
2013-04-11 10:20:00,27.6,13.5,30.03,NW,313,13.0,13.0,55,0.00,,,0.00,Wunderground v.1.15,2013-04-11 14:20:00,
2013-04-11 10:30:00,27.9,13.8,30.03,WNW,299,12.0,13.0,55,0.00,,,0.00,Wunderground v.1.15,2013-04-11 14:30:00,
2013-04-11 10:40:00,28.1,14.8,30.04,NW,325,14.0,18.0,57,0.00,,,0.00,Wunderground v.1.15,2013-04-11 14:40:00,
2013-04-11 10:50:00,28.1,13.6,30.04,NNW,331,15.0,15.0,54,0.00,,,0.00,Wunderground v.1.15,2013-04-11 14:50:00,
2013-04-11 11:00:00,28.5,13.5,30.03,West,281,12.0,13.0,53,0.00,,,0.00,Wunderground v.1.15,2013-04-11 15:00:00,
2013-04-11 11:10:00,28.6,14.9,30.04,NW,318,14.0,14.0,56,0.00,,,0.00,Wunderground v.1.15,2013-04-11 15:10:00,
2013-04-11 11:20:00,28.5,15.2,30.04,NW,311,13.0,14.0,57,0.00,,,0.00,Wunderground v.1.15,2013-04-11 15:20:00,
2013-04-11 11:30:00,28.9,15.6,30.04,WNW,300,12.0,14.0,57,0.00,,,0.00,Wunderground v.1.15,2013-04-11 15:30:00,
2013-04-11 11:40:00,29.0,13.6,30.05,North,5,13.0,13.0,52,0.00,,,0.00,Wunderground v.1.15,2013-04-11 15:40:00,
2013-04-11 11:50:00,29.0,14.0,30.05,NW,321,13.0,13.0,53,0.00,,,0.00,Wunderground v.1.15,2013-04-11 15:50:00,
2013-04-11 12:01:00,29.2,14.2,30.04,NW,305,12.0,13.0,53,0.00,,,0.00,Wunderground v.1.15,2013-04-11 16:01:00,
2013-04-11 12:10:00,29.7,14.6,30.03,West,276,13.0,13.0,53,0.00,,,0.00,Wunderground v.1.15,2013-04-11 16:10:00,
2013-04-11 12:20:00,29.7,12.8,30.03,NW,322,12.0,12.0,49,0.00,,,0.00,Wunderground v.1.15,2013-04-11 16:20:00,
2013-04-11 12:30:00,30.0,13.6,30.04,West,275,13.0,13.0,50,0.00,,,0.00,Wunderground v.1.15,2013-04-11 16:30:00,
2013-04-11 12:40:00,30.5,14.0,30.03,NW,321,12.0,14.0,50,0.00,,,0.00,Wunderground v.1.15,2013-04-11 16:40:00,
2013-04-11 12:50:00,30.6,15.5,30.04,NW,314,12.0,16.0,53,0.00,,,0.00,Wunderground v.1.15,2013-04-11 16:50:00,
2013-04-11 13:00:00,30.8,13.4,30.04,NNW,329,12.0,15.0,48,0.00,,,0.00,Wunderground v.1.15,2013-04-11 17:00:00,
2013-04-11 13:10:00,31.1,15.1,30.04,NNW,337,12.0,12.0,51,0.00,,,0.00,Wunderground v.1.15,2013-04-11 17:10:00,
2013-04-11 13:20:00,31.6,13.7,30.04,WNW,300,11.0,11.0,47,0.00,,,0.00,Wunderground v.1.15,2013-04-11 17:20:00,
2013-04-11 13:30:00,31.5,14.5,30.04,NW,317,13.0,13.0,49,0.00,,,0.00,Wunderground v.1.15,2013-04-11 17:30:00,
2013-04-11 13:40:00,31.9,15.3,30.04,WNW,297,11.0,11.0,50,0.00,,,0.00,Wunderground v.1.15,2013-04-11 17:40:00,
2013-04-11 13:50:00,31.5,14.5,30.05,NW,325,12.0,18.0,49,0.00,,,0.00,Wunderground v.1.15,2013-04-11 17:50:00,
2013-04-11 14:00:00,31.9,15.3,30.05,WNW,298,11.0,11.0,50,0.00,,,0.00,Wunderground v.1.15,2013-04-11 18:00:00,
2013-04-11 14:10:00,32.2,15.6,30.05,NW,315,12.0,16.0,50,0.00,,,0.00,Wunderground v.1.15,2013-04-11 18:10:00,
2013-04-11 14:20:00,32.3,14.8,30.05,WNW,301,12.0,12.0,48,0.00,,,0.00,Wunderground v.1.15,2013-04-11 18:20:00,
2013-04-11 14:30:00,32.0,14.0,30.06,West,275,12.0,12.0,47,0.00,,,0.00,Wunderground v.1.15,2013-04-11 18:30:00,
2013-04-11 14:40:00,32.5,13.5,30.06,WNW,302,14.0,14.0,45,0.00,,,0.00,Wunderground v.1.15,2013-04-11 18:40:00,
2013-04-11 14:50:00,32.7,14.2,30.05,NW,318,13.0,14.0,46,0.00,,,0.00,Wunderground v.1.15,2013-04-11 18:50:00,
2013-04-11 15:00:00,33.1,15.0,30.06,NW,308,11.0,12.0,47,0.00,,,0.00,Wunderground v.1.15,2013-04-11 19:00:00,
2013-04-11 15:10:00,33.2,15.6,30.05,WNW,303,12.0,12.0,48,0.00,,,0.00,Wunderground v.1.15,2013-04-11 19:10:00,
2013-04-11 15:20:00,33.1,15.0,30.05,NW,325,12.0,12.0,47,0.00,,,0.00,Wunderground v.1.15,2013-04-11 19:20:00,
2013-04-11 15:30:00,33.2,14.6,30.05,NNW,337,15.0,15.0,46,0.00,,,0.00,Wunderground v.1.15,2013-04-11 19:30:00,
2013-04-11 15:40:00,33.2,15.6,30.05,NW,315,13.0,15.0,48,0.00,,,0.00,Wunderground v.1.15,2013-04-11 19:40:00,
2013-04-11 15:50:00,32.9,16.3,30.06,NNW,337,15.0,18.0,50,0.00,,,0.00,Wunderground v.1.15,2013-04-11 19:50:00,
2013-04-11 16:00:00,33.1,16.9,30.05,WNW,299,14.0,15.0,51,0.00,,,0.00,Wunderground v.1.15,2013-04-11 20:00:00,
2013-04-11 16:10:00,33.1,16.5,30.05,NW,321,15.0,15.0,50,0.00,,,0.00,Wunderground v.1.15,2013-04-11 20:10:00,
2013-04-11 16:20:00,32.9,15.3,30.06,WNW,300,14.0,14.0,48,0.00,,,0.00,Wunderground v.1.15,2013-04-11 20:20:00,
2013-04-11 16:30:00,33.3,16.6,30.06,NNW,331,11.0,17.0,50,0.00,,,0.00,Wunderground v.1.15,2013-04-11 20:30:00,
2013-04-11 16:40:00,33.0,14.9,30.07,WNW,303,15.0,15.0,47,0.00,,,0.00,Wunderground v.1.15,2013-04-11 20:40:00,
2013-04-11 16:50:00,33.0,15.4,30.07,NNW,333,14.0,14.0,48,0.00,,,0.00,Wunderground v.1.15,2013-04-11 20:50:00,
2013-04-11 17:01:00,33.2,15.6,30.08,NNW,336,12.0,12.0,48,0.00,,,0.00,Wunderground v.1.15,2013-04-11 21:01:00,
2013-04-11 17:10:00,33.0,15.4,30.08,WNW,301,14.0,14.0,48,0.00,,,0.00,Wunderground v.1.15,2013-04-11 21:10:00,
2013-04-11 17:20:00,33.0,16.4,30.09,NW,319,13.0,13.0,50,0.00,,,0.00,Wunderground v.1.15,2013-04-11 21:20:00,
2013-04-11 17:30:00,32.9,15.8,30.09,NW,314,11.0,11.0,49,0.00,,,0.00,Wunderground v.1.15,2013-04-11 21:30:00,
2013-04-11 17:40:00,32.6,15.5,30.10,NW,307,11.0,17.0,49,0.00,,,0.00,Wunderground v.1.15,2013-04-11 21:40:00,
2013-04-11 17:50:00,32.9,16.7,30.10,NW,319,8.0,8.0,51,0.00,,,0.00,Wunderground v.1.15,2013-04-11 21:50:00,
2013-04-11 18:00:00,33.0,15.9,30.11,WNW,296,11.0,11.0,49,0.00,,,0.00,Wunderground v.1.15,2013-04-11 22:00:00,
2013-04-11 18:10:00,33.0,16.8,30.12,West,273,9.0,11.0,51,0.00,,,0.00,Wunderground v.1.15,2013-04-11 22:10:00,
2013-04-11 18:20:00,32.6,16.0,30.11,NW,323,12.0,12.0,50,0.00,,,0.00,Wunderground v.1.15,2013-04-11 22:20:00,
2013-04-11 18:30:00,32.6,16.4,30.11,NW,322,7.0,16.0,51,0.00,,,0.00,Wunderground v.1.15,2013-04-11 22:30:00,
2013-04-11 18:40:00,32.3,16.2,30.11,NNW,328,10.0,16.0,51,0.00,,,0.00,Wunderground v.1.15,2013-04-11 22:40:00,
2013-04-11 18:50:00,32.1,16.0,30.12,WNW,291,12.0,12.0,51,0.00,,,0.00,Wunderground v.1.15,2013-04-11 22:50:00,
2013-04-11 19:10:00,31.3,17.0,30.13,WNW,287,7.0,10.0,55,0.00,,,0.00,Wunderground v.1.15,2013-04-11 23:10:00,
2013-04-11 19:20:00,31.3,16.6,30.14,NW,321,8.0,8.0,54,0.00,,,0.00,Wunderground v.1.15,2013-04-11 23:20:00,
2013-04-11 19:40:00,30.7,16.4,30.14,NW,314,5.0,5.0,55,0.00,,,0.00,Wunderground v.1.15,2013-04-11 23:40:00,
2013-04-11 19:50:00,30.4,16.6,30.14,WNW,296,4.0,6.0,56,0.00,,,0.00,Wunderground v.1.15,2013-04-11 23:50:00,
2013-04-11 20:01:00,30.2,16.8,30.14,NNW,329,4.0,4.0,57,0.00,,,0.00,Wunderground v.1.15,2013-04-12 00:01:00,
2013-04-11 20:10:00,30.0,16.6,30.14,NW,314,4.0,5.0,57,0.00,,,0.00,Wunderground v.1.15,2013-04-12 00:10:00,
2013-04-11 20:20:00,29.8,16.4,30.14,NW,312,4.0,4.0,57,0.00,,,0.00,Wunderground v.1.15,2013-04-12 00:20:00,
2013-04-11 20:31:00,29.8,16.0,30.15,NW,309,3.0,3.0,56,0.00,,,0.00,Wunderground v.1.15,2013-04-12 00:31:00,
2013-04-11 20:40:00,29.9,16.1,30.16,NW,315,3.0,6.0,56,0.00,,,0.00,Wunderground v.1.15,2013-04-12 00:40:00,
2013-04-11 20:50:00,30.1,16.3,30.17,WNW,303,5.0,5.0,56,0.00,,,0.00,Wunderground v.1.15,2013-04-12 00:50:00,
2013-04-11 21:00:00,29.9,16.1,30.17,WNW,296,4.0,4.0,56,0.00,,,0.00,Wunderground v.1.15,2013-04-12 01:00:00,
2013-04-11 21:10:00,29.8,16.0,30.17,WNW,302,6.0,6.0,56,0.00,,,0.00,Wunderground v.1.15,2013-04-12 01:10:00,
2013-04-11 21:20:00,29.7,15.9,30.18,WNW,300,5.0,5.0,56,0.00,,,0.00,Wunderground v.1.15,2013-04-12 01:20:00,
2013-04-11 21:30:00,29.3,15.9,30.18,WNW,303,3.0,3.0,57,0.00,,,0.00,Wunderground v.1.15,2013-04-12 01:30:00,
2013-04-11 21:40:00,29.2,15.8,30.18,NW,310,4.0,4.0,57,0.00,,,0.00,Wunderground v.1.15,2013-04-12 01:40:00,
2013-04-11 21:50:00,29.0,16.4,30.19,NW,309,5.0,6.0,59,0.00,,,0.00,Wunderground v.1.15,2013-04-12 01:50:00,
2013-04-11 22:00:00,28.6,16.5,30.19,NW,316,3.0,3.0,60,0.00,,,0.00,Wunderground v.1.15,2013-04-12 02:00:00,
2013-04-11 22:10:00,28.3,16.2,30.19,WNW,303,3.0,6.0,60,0.00,,,0.00,Wunderground v.1.15,2013-04-12 02:10:00,
2013-04-11 22:20:00,28.5,16.4,30.19,NW,306,4.0,6.0,60,0.00,,,0.00,Wunderground v.1.15,2013-04-12 02:20:00,
2013-04-11 22:30:00,28.3,16.2,30.20,WNW,298,4.0,6.0,60,0.00,,,0.00,Wunderground v.1.15,2013-04-12 02:30:00,
2013-04-11 22:40:00,28.2,16.1,30.20,NW,313,5.0,9.0,60,0.00,,,0.00,Wunderground v.1.15,2013-04-12 02:40:00,
2013-04-11 22:50:00,28.3,16.2,30.20,WNW,300,5.0,5.0,60,0.00,,,0.00,Wunderground v.1.15,2013-04-12 02:50:00,
2013-04-11 23:00:00,27.9,16.2,30.20,WNW,302,4.0,8.0,61,0.00,,,0.00,Wunderground v.1.15,2013-04-12 03:00:00,
2013-04-11 23:10:00,27.8,16.1,30.20,WNW,292,5.0,5.0,61,0.00,,,0.00,Wunderground v.1.15,2013-04-12 03:10:00,
2013-04-11 23:20:00,27.8,16.5,30.21,WNW,294,6.0,9.0,62,0.00,,,0.00,Wunderground v.1.15,2013-04-12 03:20:00,
2013-04-11 23:30:00,27.6,16.3,30.20,WNW,296,6.0,9.0,62,0.00,,,0.00,Wunderground v.1.15,2013-04-12 03:30:00,
2013-04-11 23:40:00,27.5,16.2,30.21,WNW,300,6.0,6.0,62,0.00,,,0.00,Wunderground v.1.15,2013-04-12 03:40:00,
2013-04-11 23:50:00,27.4,16.4,30.22,NW,311,6.0,6.0,63,0.00,,,0.00,Wunderground v.1.15,2013-04-12 03:50:00,